This is the latest recevied weather packets stored in our database for station/object LU8FCJ-5. If no packets are shown the sender has not sent any weather packets the latest 1 day(s).
| Time | Temp. | Humidity | Pressure | Rain* | Wind** | Luminosity | Snow |
|---|---|---|---|---|---|---|---|
| 1778152183 | 13.89° C | 66% | 1004.6 hPa | 0 mm | - | - | - |
| 1778151253 | 14.44° C | 66% | 1005.3 hPa | 0 mm | - | - | - |
| 1778149703 | 14.44° C | 65% | 1005.5 hPa | 0 mm | - | - | - |
| 1778149392 | 14.44° C | 65% | 1005.6 hPa | 0 mm | - | - | - |
| 1778148773 | 14.44° C | 65% | 1005.5 hPa | 0 mm | - | - | - |
| 1778148152 | 14.44° C | 65% | 1005.4 hPa | 0 mm | - | - | - |
| 1778147531 | 15° C | 65% | 1006.2 hPa | 0 mm | - | - | - |
| 1778146911 | 15° C | 63% | 1005.7 hPa | 0 mm | - | - | - |
| 1778146601 | 15° C | 64% | 1005.5 hPa | 0 mm | - | - | - |
| 1778145982 | 15° C | 65% | 1005.4 hPa | 0 mm | - | - | - |
| 1778144120 | 15.56° C | 72% | 1005.5 hPa | 0 mm | - | - | - |
| 1778143499 | 15.56° C | 74% | 1005.4 hPa | 0 mm | - | - | - |
| 1778143188 | 16.11° C | 75% | 1005.4 hPa | 0 mm | - | - | - |
| 1778141949 | 16.11° C | 78% | 1005.1 hPa | 0 mm | - | - | - |
| 1778141638 | 16.11° C | 78% | 1005.1 hPa | 0 mm | - | - | - |
| 1778141328 | 16.67° C | 79% | 1005.2 hPa | 0 mm | - | - | - |
| 1778140708 | 16.67° C | 88% | 1005.1 hPa | 0 mm | - | - | - |
| 1778140088 | 17.22° C | 91% | 1004.9 hPa | 0 mm | - | - | - |
| 1778139467 | 17.22° C | 92% | 1005 hPa | 0 mm | - | - | - |
| 1778139157 | 17.22° C | 92% | 1005.1 hPa | 0 mm | - | - | - |
| 1778138847 | 16.67° C | 93% | 1005.3 hPa | 0 mm | - | - | - |
| 1778138240 | 16.67° C | 93% | 1005.6 hPa | 0 mm | - | - | - |
| 1778137917 | 16.67° C | 93% | 1005.4 hPa | 0 mm | - | - | - |
| 1778137606 | 16.67° C | 93% | 1005.3 hPa | 0 mm | - | - | - |
| 1778137296 | 16.67° C | 93% | 1004.8 hPa | 0 mm | - | - | - |
* Rain latest hour (hover to see other rain measurements)
** Current wind speed in m/s (hover to see current wind gust speed)